Location: Krasnoyarskiy Pitomnik
(51.1333°N, 71.6167°E)
Time: 10:17:35
(UTC+00:00)

MOS 1-B Rocket - Pass Details

Date: 22 October 2021
Orbit: 890 x 1605 km, 99.0° (Epoch: 06 December)

Event Time Altitude Azimuth Distance (km) Brightness Sun altitude
Rises 13:44:42 0° 15° (NNE) 4,152 7.2 -16.1°
Reaches altitude 10° 13:47:31 10° 16° (NNE) 3,082 6.5 -16.5°
Maximum altitude 13:54:26 88° 106° (ESE) 1,042 4.1 -17.6°
Drops below altitude 10° 14:00:22 10° 197° (SSW) 2,665 6.4 -18.5°
Sets 14:02:39 0° 197° (SSW) 3,559 7.1 -18.9°
